Weather History for Rogers, AR

Change the Weather History Date:

Saturday, May 11, 2013

  Actual Average Record
Temperature  
Mean Temperature 58 °F -  
Max Temperature 71 °F 72 °F 87 °F (2005)
Min Temperature 44 °F 53 °F 42 °F (2008)
Degree Days  
Heating Degree Days 8    
Growing Degree Days 8 (Base 50)    
Moisture  
Dew Point 47 °F    
Average Humidity 85    
Maximum Humidity 100    
Minimum Humidity 34    
Precipitation  
Precipitation 0.00 in - - ()
Sea Level Pressure  
Sea Level Pressure 30.11 in    
Wind  
Wind Speed 1 mph (NNW)    
Max Wind Speed 17 mph    
Max Gust Speed 25 mph    
Visibility 4 miles    
Events Fog    
Averages and records for this station are not official NWS values.
T = Trace of Precipitation, MM = Missing Value Source: NWS Daily Summary

Daily Weather History Graph

Daily Weather History Graph

Search for Another Location

Airport:

Trip Planner

Search our weather history database for the weather conditions in past years. The results will help you decide how hot, cold, wet, or windy it might be!

Date:

Astronomy

May. 11, 2013 Rise Set
Actual Time 6:12 AM CDT 8:13 PM CDT
Civil Twilight 5:44 AM CDT 8:41 PM CDT
Nautical Twilight 5:10 AM CDT 9:16 PM CDT
Astronomical Twilight 4:32 AM CDT 9:53 PM CDT
Moon 7:22 AM CDT (5/11) 9:53 PM CDT (5/11)
Length of Visible Light 14h 57m
Length of Day
14h 00m
Waxing Crescent, 3% of the Moon is Illuminated
May 11
Waxing Crescent
May 17
First Quarter
May 24
Full
May 31
Last Quarter
Jun 8
New

Hourly Weather History & Observations

Time (CDT) Temp. Windchill Dew Point Humidity Pressure Visibility Wind Dir Wind Speed Gust Speed Precip Events Conditions
12:53 AM 51.8 °F - 51.8 °F 100% 30.09 in 1.2 mi Calm Calm - N/A   Clear
12:57 AM 52.0 °F - 50.0 °F 93% 30.07 in 0.8 mi Calm Calm - N/A   Clear
1:01 AM 51.8 °F - 50.0 °F 94% 30.08 in 0.5 mi Calm Calm - N/A Fog Fog
1:06 AM 51.8 °F - 51.8 °F 100% 30.08 in 1.0 mi Calm Calm - N/A   Clear
1:10 AM 51.8 °F - 50.0 °F 94% 30.09 in 2.0 mi Calm Calm - N/A   Clear
1:14 AM 51.8 °F - 50.0 °F 94% 30.09 in 6.0 mi Calm Calm - N/A   Clear
1:42 AM 51.8 °F - 50.0 °F 94% 30.09 in 2.0 mi Calm Calm - N/A   Clear
1:50 AM 51.8 °F - 50.0 °F 94% 30.10 in 4.0 mi Calm Calm - N/A   Clear
1:57 AM 50.0 °F - 48.9 °F 96% 30.09 in 5.0 mi Calm Calm - N/A   Clear
2:13 AM 51.8 °F - 50.0 °F 94% 30.10 in 1.8 mi Calm Calm - N/A   Clear
2:16 AM 50.0 °F - 48.2 °F 94% 30.10 in 0.8 mi NW 3.5 mph - N/A   Clear
2:25 AM 50.0 °F - 48.2 °F 94% 30.09 in 0.5 mi Calm Calm - N/A Fog Fog
2:34 AM 50.0 °F - 48.2 °F 94% 30.10 in 0.2 mi Calm Calm - N/A Fog Fog
2:57 AM 50.0 °F - 48.2 °F 94% 30.10 in 0.5 mi Calm Calm - N/A Fog Fog
2:59 AM 50.0 °F - 48.9 °F 96% 30.09 in 0.5 mi Calm Calm - N/A Fog Fog
3:02 AM 50.0 °F - 48.2 °F 94% 30.10 in 0.2 mi Calm Calm - N/A Fog Fog
3:34 AM 48.2 °F - 48.2 °F 100% 30.10 in 0.5 mi Calm Calm - N/A Fog Fog
3:44 AM 48.2 °F - 46.4 °F 93% 30.10 in 0.2 mi Calm Calm - N/A Fog Fog
3:51 AM 46.4 °F - 46.4 °F 100% 30.10 in 0.5 mi Calm Calm - N/A Fog Fog
3:57 AM 46.9 °F - 46.9 °F 100% 30.08 in 0.5 mi Calm Calm - N/A Fog Fog
4:01 AM 46.4 °F - 46.4 °F 100% 30.09 in 0.2 mi Calm Calm - N/A Fog Fog
4:25 AM 46.4 °F - 46.4 °F 100% 30.09 in 0.5 mi Calm Calm - N/A Fog Fog
4:30 AM 46.4 °F - 46.4 °F 100% 30.09 in 1.0 mi Calm Calm - N/A   Mostly Cloudy
4:32 AM 46.4 °F - 46.4 °F 100% 30.09 in 2.0 mi Calm Calm - N/A   Mostly Cloudy
4:38 AM 46.4 °F - 46.4 °F 100% 30.08 in 1.2 mi Calm Calm - N/A   Mostly Cloudy
4:44 AM 46.4 °F - 46.4 °F 100% 30.08 in 1.0 mi Calm Calm - N/A   Mist
4:48 AM 46.4 °F - 46.4 °F 100% 30.08 in 0.5 mi Calm Calm - N/A Fog Fog
4:54 AM 46.4 °F 45.2 °F 46.4 °F 100% 30.08 in 0.2 mi NW 3.5 mph - N/A Fog Fog
4:57 AM 46.9 °F - 46.0 °F 97% 30.07 in 0.2 mi NW 3.5 mph - N/A Fog Fog
5:24 AM 46.4 °F - 46.4 °F 100% 30.09 in 0.5 mi Calm Calm - N/A Fog Fog
5:36 AM 46.4 °F - 46.4 °F 100% 30.09 in 0.2 mi Calm Calm - N/A Fog Fog
5:43 AM 46.4 °F - 46.4 °F 100% 30.09 in 0.5 mi Calm Calm - N/A Fog Fog
5:57 AM 46.0 °F - 46.0 °F 100% 30.09 in 0.5 mi Calm Calm - N/A Fog Fog
6:03 AM 46.4 °F - 46.4 °F 100% 30.10 in 0.2 mi Calm Calm - N/A Fog Fog
6:29 AM 46.4 °F - 44.6 °F 93% 30.10 in 0.5 mi Calm Calm - N/A Fog Fog
6:34 AM 44.6 °F - 44.6 °F 100% 30.10 in 0.2 mi Calm Calm - N/A Fog Fog
6:57 AM 45.0 °F - 44.1 °F 97% 30.10 in 0.2 mi Calm Calm - N/A Fog Fog
7:32 AM 46.4 °F - 46.4 °F 100% 30.12 in 0.5 mi Calm Calm - N/A Fog Fog
7:35 AM 46.4 °F - 46.4 °F 100% 30.13 in 1.0 mi Calm Calm - N/A   Mist
7:38 AM 46.4 °F - 46.4 °F 100% 30.13 in 1.5 mi Calm Calm - N/A   Partly Cloudy
7:42 AM 48.2 °F - 46.4 °F 93% 30.13 in 3.0 mi Calm Calm - N/A   Clear
7:57 AM 50.0 °F - 48.9 °F 96% 30.12 in 4.0 mi Calm Calm - N/A   Clear
8:57 AM 55.0 °F - 54.0 °F 96% 30.14 in 10.0 mi NW 4.6 mph - N/A   Clear
9:57 AM 61.0 °F - 53.1 °F 75% 30.13 in 10.0 mi NW 5.8 mph - N/A   Clear
10:57 AM 64.9 °F - 51.1 °F 61% 30.12 in 10.0 mi NNW 9.2 mph - N/A   Clear
11:57 AM 68.0 °F - 51.1 °F 55% 30.13 in 10.0 mi NNW 8.1 mph - N/A   Partly Cloudy
12:57 PM 70.0 °F - 53.1 °F 55% 30.12 in 10.0 mi West 11.5 mph - N/A   Mostly Cloudy
1:57 PM 71.1 °F - 50.0 °F 47% 30.12 in 10.0 mi NNW 8.1 mph 16.1 mph N/A   Mostly Cloudy
2:57 PM 70.0 °F - 51.1 °F 51% 30.12 in 10.0 mi NW 12.7 mph - N/A   Mostly Cloudy
3:57 PM 71.1 °F - 53.1 °F 53% 30.11 in 10.0 mi NNW 17.3 mph 25.3 mph N/A   Mostly Cloudy
4:57 PM 69.1 °F - 46.0 °F 44% 30.12 in 10.0 mi North 15.0 mph 24.2 mph N/A   Scattered Clouds
5:57 PM 66.9 °F - 37.9 °F 34% 30.14 in 10.0 mi North 16.1 mph 21.9 mph N/A   Clear
6:57 PM 64.9 °F - 36.0 °F 34% 30.14 in 10.0 mi North 10.4 mph - N/A   Clear
7:57 PM 62.1 °F - 37.9 °F 41% 30.16 in 10.0 mi North 5.8 mph - N/A   Clear
8:57 PM 57.9 °F - 36.0 °F 44% 30.18 in 10.0 mi North 5.8 mph - N/A   Clear
9:57 PM 55.9 °F - 37.0 °F 49% 30.20 in 10.0 mi NNW 4.6 mph - N/A   Clear
10:57 PM 53.1 °F - 37.0 °F 55% 30.21 in 10.0 mi North 3.5 mph - N/A   Clear
11:57 PM 51.1 °F - 37.0 °F 59% 30.22 in 10.0 mi Calm Calm - N/A   Clear